Location: David Mid Texas Observatory
(30.9664°N, 96.2113°W)
Time: 19:19:27
(UTC-06:00)

Hubble Space Telescope - Visible Passes

Search period start: 17 February 2018 00:00
Search period end: 27 February 2018 00:00
Orbit: 537 x 541 km, 28.5° (Epoch: 16 February)

Date Brightness Start Highest point End Pass type
(mag) Time Alt. Az. Time Alt. Az. Time Alt. Az.
17 Feb 3.4 05:10:03 11° S 05:11:19 12° SSE 05:13:05 10° SE visible
18 Feb 3.1 05:00:45 16° SSE 05:00:57 16° SSE 05:03:30 10° ESE visible
19 Feb 3.0 04:51:20 19° SE 04:51:20 19° SE 04:53:38 10° ESE visible
19 Feb 1.6 06:27:28 10° WSW 06:31:26 47° S 06:35:26 10° E visible
20 Feb 3.1 04:41:50 19° SE 04:41:50 19° SE 04:43:37 10° ESE visible
20 Feb 1.3 06:17:12 10° WSW 06:21:09 52° S 06:25:11 10° E visible
21 Feb 3.4 04:32:15 17° ESE 04:32:15 17° ESE 04:33:31 10° E visible
21 Feb 1.2 06:07:37 15° WSW 06:10:52 57° S 06:14:56 10° E visible
22 Feb 3.7 04:22:37 14° ESE 04:22:37 14° ESE 04:23:22 10° E visible
22 Feb 1.0 05:57:58 21° WSW 06:00:35 60° S 06:04:40 10° E visible
23 Feb 4.0 04:12:57 11° E 04:12:57 11° E 04:13:10 10° E visible
23 Feb 1.0 05:48:18 28° WSW 05:50:18 62° S 05:54:25 10° E visible
24 Feb 0.9 05:38:36 37° WSW 05:40:02 62° S 05:44:08 10° E visible
25 Feb 0.9 05:28:54 47° SW 05:29:46 60° S 05:33:50 10° ESE visible
26 Feb 0.9 05:19:12 55° SSW 05:19:29 56° S 05:23:32 10° ESE visible
